This is the latest recevied weather packets stored in our database for station/object KC3ULW-13. If no packets are shown the sender has not sent any weather packets the latest 10 day(s).
| Time | Temp. | Humidity | Pressure | Rain* | Wind** | Luminosity | Snow |
|---|---|---|---|---|---|---|---|
| 1777816244 | 8.89° C | 54% | 1020.4 hPa | 0 mm | - | 504 W/m² | - |
| 1777815941 | 8.89° C | 57% | 1020.6 hPa | 0 mm | - | 490 W/m² | - |
| 1777815638 | 8.33° C | 58% | 1020.6 hPa | 0 mm | - | 432 W/m² | - |
| 1777815335 | 8.89° C | 59% | 1020.6 hPa | 0 mm | - | 440 W/m² | - |
| 1777815033 | 7.78° C | 60% | 1020.6 hPa | 0 mm | - | 400 W/m² | - |
| 1777814729 | 7.78° C | 60% | 1020.6 hPa | 0 mm | - | 367 W/m² | - |
| 1777814426 | 7.78° C | 61% | 1020.6 hPa | 0 mm | - | 344 W/m² | - |
| 1777814123 | 7.78° C | 61% | 1020.6 hPa | 0 mm | - | 333 W/m² | - |
| 1777813819 | 7.22° C | 63% | 1020.5 hPa | 0 mm | - | 321 W/m² | - |
| 1777813516 | 7.22° C | 65% | 1020.6 hPa | 0 mm | - | 294 W/m² | - |
| 1777813215 | 6.67° C | 65% | 1020.7 hPa | 0 mm | - | 295 W/m² | - |
| 1777812912 | 6.11° C | 69% | 1020.6 hPa | 0 mm | - | 271 W/m² | - |
| 1777812609 | 5.56° C | 70% | 1020.6 hPa | 0 mm | - | 202 W/m² | - |
| 1777812305 | 5.56° C | 71% | 1020.4 hPa | 0 mm | - | 47 W/m² | - |
| 1777812003 | 5° C | 73% | 1020.4 hPa | 0 mm | - | 46 W/m² | - |
| 1777811702 | 5° C | 75% | 1020.4 hPa | 0 mm | - | 133 W/m² | - |
| 1777811397 | 4.44° C | 78% | 1020.4 hPa | 0 mm | - | 45 W/m² | - |
| 1777811094 | 3.89° C | 80% | 1020.4 hPa | 0 mm | - | 43 W/m² | - |
| 1777810791 | 3.89° C | 82% | 1020.3 hPa | 0 mm | - | 42 W/m² | - |
| 1777810488 | 3.89° C | 83% | 1020.3 hPa | 0 mm | - | 41 W/m² | - |
| 1777810184 | 3.33° C | 84% | 1020.3 hPa | 0 mm | - | 39 W/m² | - |
| 1777809881 | 2.78° C | 86% | 1020.2 hPa | 0 mm | - | 38 W/m² | - |
| 1777809579 | 2.78° C | 88% | 1020.2 hPa | 0 mm | - | 37 W/m² | - |
| 1777809277 | 2.22° C | 89% | 1020.1 hPa | 0 mm | - | 36 W/m² | - |
| 1777808975 | 2.22° C | 89% | 1020 hPa | 0 mm | - | 33 W/m² | - |
* Rain latest hour (hover to see other rain measurements)
** Current wind speed in m/s (hover to see current wind gust speed)